Location: *
(51.0333°S, 178.4667°E)
Time: 00:51:56
(UTC+00:00)

CZ-4 R/B - Pass Details

Date: 01 March 2020
Orbit: 531 x 599 km, 97.8° (Epoch: 01 April)

Event Time Altitude Azimuth Distance (km) Brightness Sun altitude
Rises 16:56:23 0° 62° (ENE) 2,726 5.5 -6.9°
Reaches altitude 10° 16:59:08 10° 83° (E) 1,853 5.2 -6.5°
Maximum altitude 17:01:38 16° 122° (ESE) 1,509 5.0 -6.2°
Drops below altitude 10° 17:04:11 10° 160° (SSE) 1,893 4.7 -5.8°
Sets 17:07:01 0° 181° (S) 2,814 5.2 -5.4°
